Terug naar catalogus

STARLINK-37055

ActiefCommunicatieSSO
NORAD 68147·PAYLOAD·🇺🇸 United States

Gelanceerd Mar 13, 2026 vanaf Vandenberg Space Force Base

Loading…

Volgende Passages (komende 24 uur)

TLE

VersSource: CelesTrak SupGP

Epoch: Sep 15, 2026, 04:07 UTC

1 68147C 26049F   26258.17201389 -.00055588  00000+0 -17256-2 0  2584
2 68147  97.2835 278.1867 0001525  90.2007 256.8464 15.33466698    19

Volg STARLINK-37055 in realtime met AllMySat

Download on the App Store